Regional Weather Roundup
Issued by NWS

Home | Current Version | Previous Version | Text Only | Print | Product List | Glossary Off
Versions: 1 2 3 4 5 6 7 8 9 10 11 12 13 14 15 16 17 18 19 20 21 22 23 24 25 26 27 28 29 30 31 32 33 34 35 36 37 38 39 40 41 42 43 44 45 46 47 48 49 50

000
ASUS43 KDMX 291207
RWRIA

WEATHER ROUNDUP FOR IOWA
NATIONAL WEATHER SERVICE DES MOINES IA
700 AM CDT MON JUN 29 2015

NOTE: "FAIR" INDICATES FEW OR NO CLOUDS BELOW 12,000 FEET WITH NO
SIGNIFICANT WEATHER AND/OR OBSTRUCTIONS TO VISIBILITY.

* - THESE STATIONS ARE NOT NWS STATIONS...THUS NOT UNDER NWS
QUALITY CONTROL.  THEY ALSO DO NOT REPORT WEATHER SUCH
AS PRECIPITATION OR FOG.

IAZ001>003-012>014-020>022-031>034-043>046-291300-
   NORTHWEST IOWA

CITY           SKY/WX    TMP DP  RH WIND       PRES   REMARKS
CARROLL *      SUNNY     64  61  88 W9        29.90R
CHEROKEE *     SUNNY     60  60  99 CALM      29.91S FOG
DENISON *      SUNNY     61  59  94 CALM      29.90R
LE MARS *      SUNNY     61  59  94 CALM      29.94R
ORANGE CITY *  SUNNY     61  57  88 NW3       29.93R FOG
SHELDON *      SUNNY     61  61 100 W5        29.91S FOG
SIOUX CITY     SUNNY     64  59  83 NW6       29.93R
6HR MIN TEMP:  62; 6HR MAX TEMP:  68;

SPENCER        SUNNY     63  60  90 W5        29.90S FOG
6HR MIN TEMP:  59; 6HR MAX TEMP:  63;

STORM LAKE *   SUNNY     63  59  88 W8        29.92R
$$

IAZ055>058-069>071-079>083-090>094-291300-
   SOUTHWEST IOWA

CITY           SKY/WX    TMP DP  RH WIND       PRES   REMARKS
ATLANTIC *     MOSUNNY   63  61  94 CALM      29.91S
AUDUBON *      SUNNY     64  61  88 CALM      29.92R
CLARINDA *     MOSUNNY   64  64 100 CALM      29.94R
COUNCIL BLFS * SUNNY     64  61  88 SW6       29.93S
CRESTON *      SUNNY     63  61  94 W5        29.91R
HARLAN  *      SUNNY     63  63 100 CALM      29.95R
LAMONI         SUNNY     66  63  90 NW5       29.89R
6HR MIN TEMP:  64; 6HR MAX TEMP:  69;

RED OAK *      MOSUNNY   66  61  82 CALM      29.92S
SHENANDOAH *   SUNNY     64  61  88 SW5       29.93S
$$

IAZ047>049-059>061-072>074-084-291300-
   CENTRAL IOWA

CITY           SKY/WX    TMP DP  RH WIND       PRES   REMARKS
AMES           SUNNY     67  61  81 NW7       29.86R
6HR MIN TEMP:  61; 6HR MAX TEMP:  67;

ANKENY *       SUNNY     66  64  94 CALM      29.86R
CHARITON *     SUNNY     66  64  94 W7        29.87R
DES MOINES     MOSUNNY   67  62  84 W5        29.86R
6HR MIN TEMP:  65; 6HR MAX TEMP:  71;

GRINNELL*      SUNNY     63  62  97 W3        29.86R FOG
KNOXVILLE *    SUNNY     66  63  88 W7        29.85R
MARSHALLTOWN   SUNNY     62  61  96 W5        29.84S FOG
6HR MIN TEMP:  59; 6HR MAX TEMP:  64;

PELLA *        SUNNY     65  65 100 NW6       29.87R FOG
PERRY *          N/A     66  63  88 NW7       29.88R
$$

IAZ004>006-015-016-023>025-035-036-291300-
   NORTH CENTRAL IOWA

CITY           SKY/WX    TMP DP  RH WIND       PRES   REMARKS
ALGONA *       SUNNY     64  61  88 NW8       29.88R
CLARION *      SUNNY     63  61  94 NW5       29.87R
ESTHERVILLE    SUNNY     63  60  90 NW8       29.88R
6HR MIN TEMP:  61; 6HR MAX TEMP:  63;

FORT DODGE *   SUNNY     64  59  82 CALM      29.89R
MASON CITY     SUNNY     64  62  93 W6        29.86R
6HR MIN TEMP:  60; 6HR MAX TEMP:  64;

FOREST CITY *  MOSUNNY   63  63 100 W3        29.86R
IOWA FALLS *     N/A     63  61  94 W5        29.87R
$$

IAZ007>011-017>019-026>030-037>042-050>054-066-291300-
   NORTHEAST IOWA

CITY           SKY/WX    TMP DP  RH WIND       PRES   REMARKS
CEDAR RAPIDS   FOG       62  62 100 NW8       29.82S VSB 3/4
6HR MIN TEMP:  57; 6HR MAX TEMP:  62;

CHARLES CITY * FOG       61  61 100 CALM      29.85R VSB 3/4
CLINTON *      CLOUDY    61  57  88 CALM      29.85R VSB<1/4
DECORAH *        N/A    N/A N/A N/A MISG        N/A
DUBUQUE        SUNNY     61  60  97 CALM      29.82S
6HR MIN TEMP:  55; 6HR MAX TEMP:  61;

MONTICELLO *   CLOUDY    59 N/A N/A CALM      29.82S FOG
OELWEIN *        N/A    N/A N/A N/A MISG      29.85R
WATERLOO       PTSUNNY   63  62  97 CALM      29.83R FOG
6HR MIN TEMP:  60; 6HR MAX TEMP:  63;

$$

IAZ064-065-067-068-078-291300-
   EAST CENTRAL IOWA

CITY           SKY/WX    TMP DP  RH WIND       PRES   REMARKS
DAVENPORT      FOG       59  58  96 CALM      29.83R VSB<1/4
6HR MIN TEMP:  57; 6HR MAX TEMP:  61;

IOWA CITY      CLOUDY    62  62 100 CALM      29.84R FOG
6HR MIN TEMP:  59; 6HR MAX TEMP:  63;

MT. PLEASANT * CLOUDY    67  64  89 NW8       29.83S FOG
MUSCATINE *    FOG       63  63 100 NW3       29.83R VSB 1/4
QUAD CITIES    FOG       63  61  93 CALM      29.82R VSB 1/8
6HR MIN TEMP:  58; 6HR MAX TEMP:  63;

$$

IAZ062-063-075>077-085>089-095>099-291300-
   SOUTHEAST IOWA

CITY           SKY/WX    TMP DP  RH WIND       PRES   REMARKS
BURLINGTON     CLOUDY    64  64 100 N8        29.83R FOG
6HR MIN TEMP:  64; 6HR MAX TEMP:  65;

FAIRFIELD *    FOG       64  64 100 NW10      29.84S VSB 1/2
FORT MADISON * CLOUDY    64  64 100 N5        29.84R FOG
KEOKUK *       CLOUDY    64  64 100 NW5       29.83R FOG
OSKALOOSA *    CLOUDY    64  64  97 NW3       29.86R FOG
OTTUMWA        CLOUDY    66  66 100 NW6       29.83S FOG
6HR MIN TEMP:  65; 6HR MAX TEMP:  67;

WASHINGTON *   FOG       63  63 100 NW8       29.85R VSB 0
$$

ABBREVIATIONS USED IN REMARKS
   TC - TEMPERATURES IN CELSIUS
  WCI - WIND CHILL INDEX
   HX - HEAT INDEX
  VSB - VISIBILITY
$$



USA.gov is the U.S. government's official web portal to all federal, state and local government web resources and services.